Flag for France Weather past 2 weeks in Amsterdam Island, French Southern Territories, France

Now
53 °F

Cool.


Feels Like: 48 °F
Forecast: 50 / 55 °F
Wind: 17 mph from Northwest

Location: Martin De Vivies Ile Amsterdam

Current Time: Sep 22, 2014 at 7:47:45 AM

Latest Report: Sep 22, 2014 at 7:00 AM


Visibility: N/A

Pressure: 30.09 "Hg

Humidity: 79%

Dew point: 47 °F

Location of Amsterdam IslandLocation

Historic Weather in Amsterdam Island — Graph

°F

Amsterdam Island temperature yesterday

Maximum temperature yesterday: 55 °F (at 10:00 AM)
Minimum temperature yesterday: 51 °F (at 2:00 PM)
Average temperature yesterday: 53 °F

Past Weeks' High & Low Weather Summary

 TemperatureHumidityPressure
High59 °F (Sep 15, 2:00 PM)96% (Sep 17, 9:00 AM)30.33 "Hg (Sep 17, 9:00 AM)
Low41 °F (Sep 19, 7:00 AM)46% (Sep 12, 12:00 PM)29.41 "Hg (Sep 11, 9:00 PM)
Average53 °F80%29.89 "Hg
* Reported Sep 7 6:00 AM — Sep 22 6:00 AM, Amsterdam Island, Weather by CustomWeather, © 2014

Note: Actual official high and low records may vary slightly from our data, if they occured in-between our weather recording intervals... More about our weather records

Advertising

Amsterdam Island weather history for previous 24 hours

 ConditionsComfort  
Time TempWeatherWind HumidityBarometerVisibility
6:00 AM
Sep 22
51 °FCool.16 mph82%30.08 "HgN/A
5:00 AM50 °FCool.20 mph84%30.06 "HgN/A
4:00 AM51 °FCool.15 mph85%30.05 "HgN/A
3:00 AM51 °FCool.14 mph84%30.05 "HgN/A
2:00 AM51 °FCool.14 mph87%30.06 "HgN/A
1:00 AM50 °FCool.12 mph88%30.06 "HgN/A
12:00 AM51 °FCool.10 mph84%30.06 "HgN/A
11:00 PM
Sep 21
51 °FCool.13 mph84%30.06 "HgN/A
10:00 PM52 °FCool.14 mph87%30.06 "HgN/A
9:00 PM52 °FCool.14 mph89%30.04 "HgN/A
8:00 PM53 °FCool.17 mph91%30.03 "HgN/A
7:00 PM53 °FCool.18 mph91%30.02 "HgN/A
6:00 PM53 °FCool.17 mph89%30.00 "HgN/A
5:00 PM52 °FCool.13 mph90%29.99 "HgN/A
4:00 PM51 °FCool.14 mph93%29.98 "HgN/A
3:00 PM52 °FCool.15 mph94%29.96 "HgN/A
2:00 PM51 °FCool.23 mph95%29.96 "HgN/A
1:00 PM54 °FCool.36 mph96%29.90 "HgN/A
12:00 PM54 °FCool.37 mph91%29.91 "HgN/A
11:00 AM55 °FCool.36 mph88%29.91 "HgN/A
10:00 AM55 °FCool.37 mph84%29.93 "HgN/A
9:00 AM55 °FCool.33 mph83%29.95 "HgN/A
8:00 AM55 °FCool.35 mph81%29.96 "HgN/A
7:00 AM54 °FCool.35 mph81%29.97 "HgN/A
Weather by CustomWeather, © 2014

See weather overviewHow to use our weather pages